SCP
0 0 0 0 0 0 0 0 0 0 0 0 0 0 0 0 0 0 0 1 1 1 1 1 1 1 1 1 1 1 1 1 0 0 0 1 1 1 1 1 1 1 1
0 0 0 0 0 0 0 0 0 0 0 0 0 0 0 0 0 0 0 1 1 1 1 1 1 1 1 1 1 1 1 1 1 0 0 1 1 1 1 1 1 1 1
0 0 0 0 0 0 0 0 0 0 0 0 0 0 0 0 0 0 0 0 0 1 1 1 1 1 1 1 1 1 1 1 0 0 0 0 0 0 0 1 1 1 1
0 0 0 0 0 0 0 0 0 0 0 0 0 0 0 0 0 0 0 0 0 1 1 1 1 1 1 1 1 1 1 0 0 0 0 0 0 0 0 0 1 1 1
0 0 0 0 0 0 0 0 0 0 0 0 0 0 0 0 0 0 0 0 0 0 1 1 1 1 1 1 1 1 1 0 0 0 0 0 0 0 0 0 1 1 1
0 0 0 0 0 0 0 0 0 0 0 0 0 0 0 0 0 0 0 0 0 0 0 0 1 1 1 1 1 1 1 1 1 1 1 1 0 0 1 1 1 1 1
0 0 0 0 0 0 0 0 0 0 0 0 0 0 0 0 0 0 0 0 0 0 0 0 0 0 0 0 1 1 1 1 1 1 1 0 0 1 1 1 1 1 1
0 0 0 0 0 0 0 0 0 0 0 0 0 0 0 0 0 0 0 0 0 0 0 0 0 0 0 0 0 0 1 1 1 1 0 0 0 1 1 1 1 1 1
0 0 0 0 0 0 0 0 0 0 0 0 0 0 0 0 0 0 0 0 0 0 0 0 0 0 0 0 0 0 0 1 1 1 1 0 0 1 1 1 1 1 1
0 0 0 0 0 0 0 0 0 0 0 0 0 0 0 0 0 0 0 0 0 0 0 0 0 0 0 0 0 0 0 0 0 1 1 0 0 0 0 0 0 0 1
0 0 0 0 0 0 0 0 0 0 0 0 0 0 0 0 0 0 0 0 0 0 0 0 0 0 0 0 0 0 0 0 0 0 0 0 0 0 0 0 0 1 1
0 0 0 0 0 0 0 0 0 0 0 0 0 0 0 0 0 0 0 0 0 0 0 0 0 0 0 0 0 0 0 0 0 0 0 0 0 0 0 0 0 1 1
0 0 0 0 0 0 0 0 0 0 0 0 0 0 0 0 0 0 0 0 0 0 0 0 0 0 0 0 0 0 0 0 0 0 0 0 0 0 0 0 1 1 1
0 0 0 0 0 0 0 0 0 0 0 0 0 0 0 0 0 0 0 0 0 0 0 0 0 0 0 0 0 0 0 0 0 0 0 0 0 0 0 0 1 1 1
0 0 0 0 0 0 0 0 0 0 0 0 0 0 0 0 0 0 0 0 0 0 0 0 0 0 0 0 0 0 0 0 0 0 0 0 0 0 0 0 0 0 0
0 0 0 0 0 0 0 0 0 0 0 0 0 0 0 0 0 0 0 0 0 0 0 0 0 0 0 0 0 0 0 0 0 0 0 0 0 0 0 0 0 0 0
0 0 0 0 0 0 0 0 0 0 0 0 0 0 0 0 0 0 0 0 0 0 0 0 0 0 0 0 0 0 0 0 0 0 0 0 0 0 0 0 0 0 0
0 0 0 0 0 0 0 0 0 0 0 0 0 0 0 0 0 0 0 0 0 0 0 0 0 0 0 0 0 0 0 0 0 0 0 0 0 0 0 0 0 0 0
0 0 0 0 0 0 0 0 0 0 0 0 0 0 0 0 0 0 0 0 0 0 0 0 0 0 0 0 0 0 0 0 0 0 0 0 0 0 0 0 0 0 0
0 0 0 0 0 0 0 0 0 0 0 0 0 0 0 0 0 0 0 0 0 0 0 0 0 0 0 0 0 0 0 0 0 0 0 0 0 0 0 0 0 0 0
0 0 0 0 0 0 0 0 0 0 0 0 0 0 0 0 0 0 0 0 0 0 0 0 0 0 0 0 0 0 0 0 0 0 0 0 0 0 0 0 0 0 0
0 0 0 0 0 0 0 0 0 0 0 0 0 0 0 0 0 0 0 0 0 0 0 0 0 0 0 0 0 0 0 0 0 0 0 0 0 0 0 0 0 0 0
0 0 0 0 0 0 0 0 0 0 0 0 0 0 0 0 0 0 0 0 0 0 0 0 0 0 0 0 0 0 0 0 0 0 0 0 0 0 0 0 0 0 0
0 0 0 0 0 0 0 0 0 0 0 0 0 0 0 0 0 0 0 0 0 0 0 0 0 0 0 0 0 0 0 0 0 0 0 0 0 0 0 0 0 0 0
0 0 0 0 1 0 0 0 0 0 0 0 0 0 0 0 0 0 0 0 0 0 0 0 0 0 0 0 0 0 0 0 0 0 0 0 0 0 0 0 0 0 0
0 0 0 0 1 0 0 0 0 0 0 0 0 0 0 0 0 0 0 0 0 0 0 0 0 0 0 0 0 0 0 0 0 0 0 0 0 0 0 0 0 0 0
Wind_Speed
2 2 1 1 2 1 1 1 2 4 4 3 4 4 4 5 6 6 5 11 12 12 12 12 12 12 12 11 11 11 10 11 11 11 11 11 11 11 10 10 10 10 10
1 1 2 2 2 1 1 2 4 4 3 3 5 5 5 5 5 6 5 7 11 12 12 12 12 13 12 12 12 11 11 11 11 11 11 11 11 11 11 11 11 11 11
2 2 2 2 2 2 3 3 4 3 3 4 4 5 5 5 5 5 4 4 5 10 12 13 13 13 13 13 12 11 11 11 11 11 11 11 11 11 11 11 11 11 11
3 3 3 2 2 3 3 3 3 3 3 4 3 4 4 4 5 4 4 4 4 5 8 12 12 13 13 13 13 12 12 12 12 12 12 11 11 11 11 11 11 11 12
4 4 2 2 3 3 2 3 3 3 3 3 3 3 3 4 3 5 5 5 5 5 4 7 11 12 13 13 13 13 13 12 12 12 11 11 11 11 11 11 11 11 12
3 3 1 3 3 3 3 3 3 3 2 2 4 4 3 3 3 4 4 5 4 5 4 5 4 7 13 13 13 13 13 13 12 11 11 11 11 10 10 11 11 11 12
3 3 2 3 2 3 3 3 3 3 2 2 3 3 3 4 4 3 3 3 4 4 4 5 4 4 5 12 13 13 13 13 12 12 11 11 10 10 10 10 11 12 12
2 2 2 2 2 2 3 3 3 1 1 1 2 2 2 2 3 3 3 3 4 3 4 6 5 5 5 4 8 13 13 13 13 12 12 12 11 11 10 10 11 12 12
2 2 2 2 2 2 2 2 2 2 1 1 1 2 2 2 1 2 2 3 3 3 3 4 6 6 6 5 4 9 13 12 13 13 12 12 12 11 11 11 12 12 12
2 2 2 2 2 2 2 2 2 2 2 1 1 1 1 3 2 1 1 2 3 3 3 4 5 5 5 4 6 10 12 12 12 13 13 13 13 12 11 11 11 12 12
2 2 2 1 1 2 2 2 3 2 1 1 0 1 1 1 1 3 2 1 2 2 2 3 3 3 4 4 4 7 10 11 12 12 13 13 13 12 12 11 11 12 12
1 2 1 1 1 2 2 2 2 2 1 1 1 1 1 1 1 2 2 2 2 1 2 2 2 2 3 3 6 9 9 9 10 11 12 12 12 12 12 12 12 12 12
1 2 2 1 1 1 2 2 2 2 2 2 1 1 2 1 1 2 3 2 2 1 2 2 2 2 3 3 3 7 8 9 9 10 11 11 11 12 12 12 12 12 12
2 2 3 2 1 1 2 2 1 1 2 2 2 2 2 1 2 3 2 2 2 1 2 1 1 2 2 2 3 4 4 7 8 9 9 10 10 10 11 11 12 12 12
2 3 4 3 2 2 2 2 1 2 3 3 2 2 2 2 2 2 2 2 3 2 1 1 1 1 2 2 3 2 3 7 7 7 8 8 9 9 10 10 10 11 11
2 3 3 3 3 3 3 3 2 2 3 3 2 3 3 2 2 2 2 1 2 2 1 1 1 1 2 3 4 2 3 7 7 7 8 9 9 9 9 10 10 10 10
3 3 3 3 4 3 3 3 2 2 2 2 2 3 3 3 2 2 2 2 2 2 3 1 1 2 3 2 2 1 2 2 3 6 7 7 7 8 8 9 9 9 9
2 3 3 3 3 3 4 4 2 2 2 2 2 3 3 3 2 2 2 2 1 2 3 3 1 1 1 1 1 1 1 2 2 5 6 5 6 6 7 7 7 8 8
2 3 3 3 3 3 3 3 3 3 2 2 2 3 2 3 2 2 2 1 1 2 2 3 1 1 1 1 2 2 2 2 1 2 3 3 4 4 5 5 5 6 6
2 1 3 3 3 3 3 3 3 3 3 3 3 3 3 3 3 2 2 2 2 2 2 2 1 1 1 0 1 1 2 2 1 1 1 2 2 2 3 3 3 4 4
2 2 2 3 3 3 3 3 2 3 3 3 3 3 4 7 7 5 3 3 3 2 1 1 1 1 0 1 0 1 0 1 2 1 1 1 0 1 1 2 2 3 3
3 2 2 3 3 3 5 6 3 2 2 3 3 3 5 5 7 7 8 7 5 2 1 1 1 1 1 1 0 0 0 1 2 2 1 2 1 0 0 1 1 2 2
3 3 3 4 4 4 5 5 4 2 2 1 2 3 3 4 5 4 4 4 3 2 2 2 1 1 1 1 1 0 1 0 1 1 1 2 1 1 1 1 3 2 1
4 3 3 3 4 4 4 3 2 2 1 1 1 2 4 3 3 4 3 3 2 1 1 1 2 1 1 0 2 2 1 0 0 1 1 1 2 1 1 1 3 3 2
4 4 3 3 4 3 4 4 2 1 1 0 1 2 2 3 4 4 4 3 2 1 2 4 3 2 2 2 2 2 1 1 2 2 0 1 2 2 1 1 2 3 3
4 4 4 4 4 4 5 5 5 2 2 1 1 2 3 4 4 4 3 2 1 0 1 1 0 1 0 1 1 1 1 1 1 2 2 0 1 2 2 2 1 1 2
Wind_Direction
104 105 123 114 112 120 127 75 71 68 61 53 63 72 78 80 88 91 75 67 63 61 61 58 58 56 54 53 51 47 43 40 39 38 37 37 38 35 34 32 29 28 25
102 99 94 86 84 78 87 87 84 77 69 56 53 54 59 67 82 96 98 75 66 65 63 58 57 56 54 53 51 47 43 41 40 39 38 38 39 37 36 34 31 31 30
82 80 83 92 98 88 71 73 81 74 82 74 60 58 57 51 64 77 90 99 83 70 66 60 56 55 52 50 48 46 45 43 40 40 40 39 39 37 36 35 33 33 33
82 70 74 78 86 82 84 89 86 76 70 70 59 56 62 50 58 63 70 77 82 82 70 67 61 57 53 48 46 45 46 44 40 39 39 39 38 37 36 36 36 35 35
83 81 62 74 77 75 69 86 80 90 93 91 92 73 62 56 51 56 58 68 72 83 85 76 69 63 57 49 44 41 42 42 40 39 38 38 38 37 36 36 38 38 38
79 90 84 78 77 80 71 75 84 79 92 96 95 85 70 65 54 49 52 59 56 66 75 78 74 64 58 49 42 39 37 38 39 39 38 37 36 37 38 39 41 41 42
65 77 77 82 83 95 103 101 92 90 91 108 94 81 65 64 67 55 48 53 55 55 58 58 61 59 56 48 39 37 34 37 38 39 40 39 38 39 41 42 45 45 47
69 103 103 99 90 90 88 89 93 90 98 115 117 111 93 49 39 68 67 63 59 50 51 57 53 54 54 47 36 36 34 35 37 40 41 39 40 44 47 47 49 50 51
54 62 85 102 111 105 113 110 105 97 70 31 76 105 120 131 122 42 68 74 69 53 48 55 57 52 53 50 35 29 33 34 37 40 41 41 43 47 50 52 53 53 53
80 59 72 75 112 108 121 142 116 98 96 50 15 48 112 130 137 122 38 62 73 60 49 58 55 54 53 53 48 37 35 32 34 36 40 42 45 48 51 56 54 55 55
104 88 88 77 101 112 120 102 101 88 91 117 113 96 69 64 96 125 130 114 67 61 71 71 65 57 55 53 50 43 40 35 34 36 38 41 44 46 50 52 54 56 55
122 117 126 115 96 98 97 108 115 111 80 59 54 75 96 90 97 106 122 128 118 104 88 80 74 71 68 55 54 49 44 42 39 38 39 41 43 44 46 48 54 55 54
134 151 133 105 82 104 104 98 109 130 137 111 77 73 65 58 81 92 108 115 116 140 112 100 102 86 80 73 59 51 52 49 44 42 43 43 45 44 46 48 53 53 53
144 137 119 113 106 111 121 114 107 133 120 116 104 93 78 42 62 92 110 116 100 58 72 93 86 83 80 78 67 62 55 57 53 49 47 47 47 46 49 50 52 51 50
141 130 123 120 100 81 83 97 83 73 76 69 75 86 90 76 74 69 78 105 124 111 71 93 76 83 95 87 71 65 67 64 63 60 58 55 54 52 51 50 50 49 47
132 133 140 136 121 104 81 74 76 70 89 89 82 74 71 67 68 65 64 41 74 123 116 101 114 122 88 86 82 65 74 79 68 69 66 63 59 56 53 51 50 48 44
150 147 149 138 138 136 119 96 99 102 102 116 115 110 101 84 79 67 55 48 52 88 109 87 84 96 89 79 73 69 86 84 64 76 73 66 62 57 53 51 48 45 42
157 141 130 122 117 115 111 114 111 98 88 85 97 102 109 104 93 80 60 58 74 91 117 122 89 61 86 94 93 58 63 88 84 83 84 76 68 61 54 49 46 42 39
145 130 125 124 122 118 123 135 132 123 108 96 87 94 101 116 118 115 106 82 84 90 102 122 124 70 63 59 53 24 21 26 62 94 98 90 80 70 56 47 46 42 39
130 128 134 132 126 124 121 119 122 119 109 101 87 83 78 86 94 105 101 91 96 89 92 100 110 95 67 29 73 22 360 354 354 32 59 113 112 93 65 48 50 48 42
134 119 105 120 115 106 90 96 105 123 119 112 110 104 96 94 86 83 87 73 75 79 98 106 107 82 43 16 299 239 344 310 325 4 11 21 105 69 53 37 44 50 48
130 118 124 109 103 98 90 78 66 104 127 129 131 132 125 113 106 97 91 85 86 92 103 108 115 137 224 211 217 57 316 12 322 328 18 324 64 33 219 161 116 99 70
129 119 113 112 111 113 108 93 64 62 71 103 127 128 120 124 128 123 109 96 73 71 107 132 121 200 190 182 147 346 325 146 222 267 28 314 325 304 261 154 153 141 119
138 137 132 130 127 131 132 123 95 93 64 48 78 115 123 119 122 125 128 117 109 78 135 137 150 165 93 133 147 168 197 32 318 330 90 284 304 284 282 218 185 172 169
153 153 150 151 144 151 165 165 142 127 124 112 75 69 111 117 123 120 121 131 131 161 149 132 137 138 99 64 70 69 34 41 317 300 292 188 287 305 292 250 232 209 213
160 153 155 169 166 163 177 179 177 169 173 163 133 96 94 117 117 116 120 137 141 210 120 115 107 311 301 354 40 127 158 165 252 302 312 45 318 355 329 305 289 242 259